• In Italy
  • List of Countries
  • For 7 days
  • Water Temperature
  • Satellite Maps
  • Weather Map
  • Weather Widgets
  • user-avatar
    Login

    Hourly Weather Hrazdan

    Today, 19 February, Monday

    Time Temperature Precipitation Wind Pressure Humidity
    00:00 -3°C° 0.7 mm 2 mps 606 mmHg 91%
    01:00 -3°C° 0.5 mm 2 mps 607 mmHg 91%
    02:00 -3°C° 0.5 mm 2 mps 607 mmHg 92%
    03:00 -3°C° 0 mm 2 mps 606 mmHg 91%
    04:00 -3°C° 0.4 mm 2 mps 607 mmHg 91%
    05:00 -4°C° 0.4 mm 2 mps 607 mmHg 90%
    06:00 -4°C° 0.4 mm 2 mps 607 mmHg 90%
    07:00 -1°C° 0.2 mm 1 mps 607 mmHg 89%
    08:00 -1°C° 0.2 mm 1 mps 608 mmHg 87%
    09:00 0°C° 0.2 mm 1 mps 608 mmHg 85%
    10:00 0°C° 0.2 mm 1 mps 608 mmHg 84%
    11:00 +1°C° 0.2 mm 1 mps 608 mmHg 83%
    12:00 +1°C° 0.2 mm 1 mps 608 mmHg 82%
    13:00 +2°C° 0.1 mm 1 mps 608 mmHg 81%
    14:00 +2°C° 0.1 mm 1 mps 608 mmHg 80%
    15:00 +2°C° 0.1 mm 1 mps 608 mmHg 79%
    16:00 +1°C° 0 mm 1 mps 608 mmHg 80%
    17:00 0°C° 0 mm 1 mps 608 mmHg 81%
    18:00 -1°C° 0 mm 1 mps 608 mmHg 82%
    19:00 -1°C° 0 mm 1 mps 608 mmHg 81%
    20:00 -2°C° 0 mm 1 mps 608 mmHg 81%
    21:00 -2°C° 0 mm 1 mps 608 mmHg 80%
    22:00 -3°C° 0 mm 1 mps 608 mmHg 80%
    23:00 -3°C° 0 mm 1 mps 608 mmHg 79%

    Tomorrow, 20 February, Tuesday

    Time Temperature Precipitation Wind Pressure Humidity
    00:00 -3°C° 0 mm 1 mps 608 mmHg 78%
    01:00 -3°C° 0 mm 1 mps 609 mmHg 78%
    02:00 -3°C° 0 mm 1 mps 609 mmHg 78%
    03:00 -4°C° 0 mm 1 mps 609 mmHg 78%
    04:00 -4°C° 0 mm 1 mps 609 mmHg 79%
    05:00 -4°C° 0 mm 1 mps 609 mmHg 79%
    06:00 -6°C° 0 mm 2 mps 609 mmHg 80%
    07:00 -4°C° 0 mm 2 mps 609 mmHg 79%
    08:00 -3°C° 0 mm 2 mps 610 mmHg 78%
    09:00 -2°C° 0 mm 2 mps 610 mmHg 78%
    10:00 -1°C° 0 mm 2 mps 610 mmHg 76%
    11:00 +1°C° 0 mm 2 mps 610 mmHg 75%
    12:00 +2°C° 0 mm 2 mps 610 mmHg 73%
    13:00 +2°C° 0 mm 2 mps 610 mmHg 72%
    14:00 +2°C° 0 mm 2 mps 610 mmHg 71%
    15:00 +2°C° 0 mm 2 mps 609 mmHg 70%
    16:00 +1°C° 0 mm 2 mps 609 mmHg 71%
    17:00 -1°C° 0 mm 2 mps 609 mmHg 72%
    18:00 0°C° 0 mm 1 mps 608 mmHg 72%
    19:00 -1°C° 0 mm 1 mps 609 mmHg 72%
    20:00 -1°C° 0 mm 1 mps 609 mmHg 71%
    21:00 -2°C° 0 mm 1 mps 609 mmHg 70%
    22:00 -2°C° 0 mm 1 mps 609 mmHg 70%
    23:00 -2°C° 0 mm 1 mps 609 mmHg 71%

    Day after tomorrow, 21 February, Wednesday

    Time Temperature Precipitation Wind Pressure Humidity
    00:00 -2°C° 0 mm 1 mps 609 mmHg 72%
    01:00 -2°C° 0 mm 1 mps 609 mmHg 73%
    02:00 -2°C° 0 mm 1 mps 609 mmHg 74%
    03:00 -2°C° 0 mm 1 mps 609 mmHg 75%
    04:00 -2°C° 0 mm 1 mps 609 mmHg 76%
    05:00 -2°C° 0 mm 1 mps 609 mmHg 76%
    06:00 -2°C° 0 mm 1 mps 609 mmHg 77%
    07:00 -1°C° 0 mm 1 mps 609 mmHg 76%
    08:00 -1°C° 0 mm 1 mps 609 mmHg 75%
    09:00 0°C° 0 mm 1 mps 610 mmHg 75%
    10:00 +1°C° 0 mm 1 mps 610 mmHg 74%
    11:00 +1°C° 0 mm 2 mps 610 mmHg 74%
    12:00 +2°C° 0 mm 2 mps 610 mmHg 74%
    13:00 +2°C° 0 mm 2 mps 610 mmHg 73%
    14:00 +2°C° 0 mm 2 mps 609 mmHg 73%
    15:00 +2°C° 0 mm 2 mps 609 mmHg 72%
    16:00 +2°C° 0 mm 1 mps 609 mmHg 74%
    17:00 +1°C° 0 mm 1 mps 609 mmHg 76%
    18:00 0°C° 0 mm 1 mps 608 mmHg 78%
    19:00 0°C° 0 mm 1 mps 608 mmHg 78%
    20:00 -1°C° 0 mm 1 mps 609 mmHg 78%
    21:00 -1°C° 0 mm 1 mps 609 mmHg 77%
    22:00 -1°C° 0 mm 1 mps 609 mmHg 77%
    23:00 -2°C° 0 mm 1 mps 609 mmHg 77%

    22 February, Thursday

    Time Temperature Precipitation Wind Pressure Humidity
    00:00 -2°C° 0 mm 1 mps 609 mmHg 76%
    01:00 -2°C° 0 mm 1 mps 609 mmHg 76%
    02:00 -2°C° 0 mm 1 mps 609 mmHg 77%
    03:00 -2°C° 0 mm 1 mps 608 mmHg 77%
    04:00 -2°C° 0 mm 1 mps 608 mmHg 77%
    05:00 -2°C° 0 mm 1 mps 608 mmHg 77%
    06:00 -2°C° 0 mm 1 mps 608 mmHg 77%
    07:00 -1°C° 0 mm 1 mps 609 mmHg 76%
    08:00 0°C° 0 mm 1 mps 609 mmHg 75%
    09:00 +1°C° 0 mm 1 mps 610 mmHg 74%
    10:00 +1°C° 0 mm 2 mps 609 mmHg 74%
    11:00 +1°C° 0 mm 2 mps 609 mmHg 73%
    12:00 +2°C° 0 mm 2 mps 609 mmHg 72%
    13:00 +3°C° 0 mm 2 mps 609 mmHg 72%
    14:00 +4°C° 0 mm 1 mps 608 mmHg 71%
    15:00 +4°C° 0 mm 1 mps 608 mmHg 70%
    16:00 +3°C° 0 mm 1 mps 608 mmHg 72%
    17:00 +2°C° 0 mm 1 mps 607 mmHg 73%
    18:00 0°C° 0 mm 1 mps 607 mmHg 75%
    19:00 0°C° 0 mm 1 mps 607 mmHg 74%
    20:00 0°C° 0 mm 1 mps 607 mmHg 74%
    21:00 -1°C° 0 mm 1 mps 608 mmHg 73%
    22:00 -1°C° 0 mm 1 mps 608 mmHg 73%
    23:00 -1°C° 0 mm 1 mps 608 mmHg 73%

    23 February, Friday

    Time Temperature Precipitation Wind Pressure Humidity
    00:00 -1°C° 0 mm 1 mps 608 mmHg 72%
    01:00 -2°C° 0 mm 0 mps 607 mmHg 72%
    02:00 -2°C° 0 mm 0 mps 607 mmHg 72%
    03:00 -3°C° 0 mm 0 mps 607 mmHg 72%
    04:00 -3°C° 0 mm 0 mps 607 mmHg 72%
    05:00 -2°C° 0 mm 1 mps 607 mmHg 73%
    06:00 -2°C° 0 mm 1 mps 607 mmHg 73%
    07:00 -1°C° 0 mm 1 mps 607 mmHg 72%
    08:00 0°C° 0 mm 1 mps 608 mmHg 70%
    09:00 +1°C° 0 mm 1 mps 608 mmHg 69%
    10:00 +2°C° 0 mm 1 mps 608 mmHg 70%
    11:00 +3°C° 0 mm 1 mps 608 mmHg 72%
    12:00 +3°C° 0 mm 1 mps 608 mmHg 73%
    13:00 +3°C° 0 mm 1 mps 608 mmHg 73%
    14:00 +4°C° 0 mm 1 mps 607 mmHg 73%
    15:00 +4°C° 0 mm 1 mps 607 mmHg 73%
    16:00 +3°C° 0 mm 1 mps 607 mmHg 76%
    17:00 +2°C° 0 mm 1 mps 607 mmHg 79%
    18:00 +1°C° 0 mm 1 mps 607 mmHg 81%
    19:00 0°C° 0 mm 1 mps 607 mmHg 83%
    20:00 0°C° 0 mm 1 mps 607 mmHg 84%
    21:00 0°C° 0 mm 1 mps 607 mmHg 86%
    22:00 -1°C° 0 mm 1 mps 607 mmHg 86%
    23:00 -1°C° 0 mm 1 mps 607 mmHg 87%

    24 February, Saturday

    Time Temperature Precipitation Wind Pressure Humidity
    00:00 -1°C° 0 mm 1 mps 607 mmHg 87%
    01:00 -1°C° 0 mm 1 mps 607 mmHg 88%
    02:00 -1°C° 0 mm 1 mps 607 mmHg 88%
    03:00 -2°C° 0 mm 1 mps 607 mmHg 88%
    04:00 -2°C° 0 mm 1 mps 607 mmHg 87%
    05:00 -2°C° 0 mm 1 mps 607 mmHg 86%
    06:00 -2°C° 0 mm 1 mps 607 mmHg 86%
    07:00 -1°C° 0 mm 1 mps 607 mmHg 82%
    08:00 0°C° 0 mm 1 mps 608 mmHg 78%
    09:00 +1°C° 0 mm 1 mps 608 mmHg 74%
    10:00 +2°C° 0 mm 1 mps 608 mmHg 73%
    11:00 +3°C° 0 mm 1 mps 608 mmHg 72%
    12:00 +4°C° 0 mm 1 mps 608 mmHg 71%
    13:00 +4°C° 0 mm 1 mps 608 mmHg 69%
    14:00 +4°C° 0 mm 1 mps 608 mmHg 67%
    15:00 +5°C° 0 mm 1 mps 608 mmHg 65%
    16:00 +3°C° 0 mm 1 mps 607 mmHg 67%
    17:00 +1°C° 0 mm 0 mps 607 mmHg 69%
    18:00 0°C° 0 mm 0 mps 607 mmHg 71%
    19:00 -1°C° 0 mm 0 mps 607 mmHg 72%
    20:00 0°C° 0 mm 1 mps 607 mmHg 72%
    21:00 -1°C° 0 mm 1 mps 607 mmHg 73%
    22:00 -1°C° 0 mm 1 mps 607 mmHg 73%
    23:00 -1°C° 0 mm 1 mps 607 mmHg 73%
    Show more